Weather History for Oxford, NC

Change the Weather History Date:

Friday, December 6, 2013

  Actual Average (KTDF) Record (KTDF)
Temperature  
Mean Temperature 70 °F -  
Max Temperature 77 °F 55 °F 78 °F (2001)
Min Temperature 64 °F 30 °F 15 °F (1992)
Cooling Degree Days 5    
Growing Degree Days 20 (Base 50)    
Moisture  
Dew Point 60 °F    
Average Humidity 75    
Maximum Humidity 93    
Minimum Humidity 53    
Precipitation  
Precipitation 0.01 in - - ()
Sea Level Pressure  
Sea Level Pressure 30.01 in    
Wind  
Wind Speed 12 mph (SSW)    
Max Wind Speed 20 mph    
Max Gust Speed 32 mph    
Visibility 10 miles    
Events Rain    
Averages and records for this station are not official NWS values.
T = Trace of Precipitation, MM = Missing Value Source: NWS Daily Summary

Daily Weather History Graph

Daily Weather History Graph

Search for Another Location

Airport:

Trip Planner

Search our weather history database for the weather conditions in past years. The results will help you decide how hot, cold, wet, or windy it might be!

Date:

Astronomy

Dec. 06, 2013 Rise Set
Actual Time 7:11 AM EST 4:58 PM EST
Civil Twilight 6:43 AM EST 5:27 PM EST
Nautical Twilight 6:11 AM EST 5:59 PM EST
Astronomical Twilight 5:39 AM EST 6:30 PM EST
Moon 10:19 AM EST (12/6) 9:23 PM EST (12/6)
Length of Visible Light 10h 44m
Length of Day
9h 47m
Waxing Crescent, 19% of the Moon is Illuminated
Dec 6
Waxing Crescent
Dec 9
First Quarter
Dec 17
Full
Dec 25
Last Quarter
Jan 1
New

Hourly Weather History & Observations

Time (EST) Temp. Dew Point Humidity Pressure Visibility Wind Dir Wind Speed Gust Speed Precip Events Conditions
12:15 AM 64.9 °F 62.2 °F 91% 30.04 in 10.0 mi South 9.2 mph 17.3 mph N/A   Overcast
12:35 AM 64.8 °F 62.2 °F 92% 30.03 in 10.0 mi South 10.4 mph - N/A   Overcast
12:55 AM 65.1 °F 62.6 °F 92% 30.02 in 10.0 mi SSW 10.4 mph - N/A   Overcast
1:15 AM 64.9 °F 62.6 °F 92% 30.02 in 7.0 mi South 9.2 mph - N/A   Overcast
1:35 AM 64.9 °F 62.8 °F 93% 30.02 in 7.0 mi South 10.4 mph - N/A Rain Light Rain
1:55 AM 64.8 °F 62.8 °F 93% 30.01 in 7.0 mi South 11.5 mph 17.3 mph N/A   Overcast
2:15 AM 64.9 °F 62.8 °F 93% 30.00 in 7.0 mi South 12.7 mph 20.7 mph N/A   Mostly Cloudy
2:35 AM 65.3 °F 62.8 °F 92% 30.01 in 7.0 mi SSW 12.7 mph 18.4 mph N/A   Mostly Cloudy
2:55 AM 65.7 °F 62.2 °F 89% 30.01 in 10.0 mi SSW 11.5 mph 18.4 mph N/A   Overcast
3:15 AM 65.5 °F 61.9 °F 88% 30.00 in 10.0 mi South 12.7 mph - N/A   Mostly Cloudy
3:35 AM 65.3 °F 61.7 °F 88% 29.99 in 10.0 mi South 11.5 mph - N/A   Scattered Clouds
3:55 AM 65.7 °F 61.7 °F 87% 29.99 in 10.0 mi SSW 12.7 mph - N/A   Clear
4:15 AM 65.8 °F 61.7 °F 86% 29.99 in 10.0 mi SSW 15.0 mph 20.7 mph N/A   Clear
4:35 AM 65.5 °F 61.3 °F 86% 29.99 in 10.0 mi SSW 11.5 mph 19.6 mph N/A   Clear
4:55 AM 65.5 °F 61.2 °F 86% 30.00 in 10.0 mi SSW 13.8 mph 20.7 mph N/A   Clear
5:15 AM 65.3 °F 61.0 °F 86% 30.00 in 10.0 mi SSW 13.8 mph - N/A   Clear
5:35 AM 65.8 °F 61.0 °F 84% 29.99 in 10.0 mi SSW 15.0 mph - N/A   Mostly Cloudy
5:55 AM 65.8 °F 60.8 °F 84% 29.99 in 10.0 mi SSW 11.5 mph - N/A   Mostly Cloudy
6:15 AM 65.5 °F 60.6 °F 84% 30.00 in 10.0 mi SSW 13.8 mph - N/A   Clear
6:35 AM 65.3 °F 60.6 °F 85% 30.01 in 10.0 mi SSW 13.8 mph 18.4 mph N/A   Clear
6:55 AM 65.3 °F 60.4 °F 84% 30.01 in 10.0 mi SSW 13.8 mph 23.0 mph N/A   Clear
7:15 AM 64.9 °F 60.4 °F 85% 30.02 in 10.0 mi SSW 12.7 mph 21.9 mph N/A   Clear
7:35 AM 64.8 °F 60.4 °F 86% 30.02 in 10.0 mi SSW 11.5 mph - N/A   Clear
7:55 AM 64.9 °F 60.4 °F 85% 30.03 in 10.0 mi SSW 15.0 mph - N/A   Scattered Clouds
8:15 AM 65.3 °F 60.4 °F 84% 30.04 in 10.0 mi SSW 11.5 mph 17.3 mph N/A   Scattered Clouds
8:35 AM 65.5 °F 60.4 °F 84% 30.05 in 10.0 mi SSW 12.7 mph 17.3 mph N/A   Scattered Clouds
8:55 AM 65.8 °F 60.4 °F 83% 30.06 in 10.0 mi SSW 12.7 mph 19.6 mph N/A   Mostly Cloudy
9:15 AM 65.8 °F 60.3 °F 82% 30.06 in 10.0 mi SSW 11.5 mph - N/A   Scattered Clouds
9:35 AM 66.7 °F 60.6 °F 81% 30.06 in 10.0 mi SSW 10.4 mph - N/A   Clear
9:55 AM 67.6 °F 60.3 °F 77% 30.06 in 10.0 mi SSW 12.7 mph 20.7 mph N/A   Clear
10:15 AM 68.4 °F 60.3 °F 75% 30.07 in 10.0 mi SSW 13.8 mph 23.0 mph N/A   Clear
10:35 AM 69.3 °F 59.2 °F 70% 30.07 in 10.0 mi SSW 12.7 mph 23.0 mph N/A   Clear
10:55 AM 70.9 °F 59.5 °F 67% 30.06 in 10.0 mi SSW 19.6 mph 27.6 mph N/A   Clear
11:15 AM 71.4 °F 59.9 °F 67% 30.06 in 10.0 mi SW 17.3 mph 28.8 mph N/A   Clear
11:35 AM 72.0 °F 60.3 °F 67% 30.04 in 10.0 mi SSW 15.0 mph 25.3 mph N/A   Clear
11:55 AM 72.1 °F 60.4 °F 67% 30.03 in 10.0 mi SSW 17.3 mph 27.6 mph N/A   Clear
12:15 PM 73.2 °F 60.8 °F 65% 30.02 in 10.0 mi SSW 19.6 mph 26.5 mph N/A   Clear
12:35 PM 74.7 °F 60.4 °F 61% 30.01 in 10.0 mi SW 19.6 mph 26.5 mph N/A   Clear
12:55 PM 75.6 °F 60.1 °F 59% 30.00 in 10.0 mi SSW 18.4 mph 32.2 mph N/A   Scattered Clouds
1:15 PM 75.4 °F 59.9 °F 58% 29.99 in 10.0 mi SSW 19.6 mph 27.6 mph N/A   Scattered Clouds
1:35 PM 76.5 °F 59.7 °F 56% 29.99 in 10.0 mi SW 18.4 mph 27.6 mph N/A   Scattered Clouds
1:55 PM 76.1 °F 58.8 °F 55% 29.98 in 10.0 mi SSW 18.4 mph 28.8 mph N/A   Scattered Clouds
2:15 PM 76.1 °F 58.3 °F 54% 29.98 in 10.0 mi SSW 19.6 mph 29.9 mph N/A   Clear
2:35 PM 75.7 °F 58.3 °F 55% 29.97 in 10.0 mi SSW 16.1 mph 26.5 mph N/A   Clear
2:55 PM 76.6 °F 58.8 °F 54% 29.97 in 10.0 mi SSW 18.4 mph 31.1 mph N/A   Clear
3:15 PM 76.3 °F 58.1 °F 53% 29.97 in 10.0 mi SSW 16.1 mph 24.2 mph N/A   Clear
3:35 PM 75.2 °F 58.6 °F 56% 29.97 in 10.0 mi SSW 15.0 mph 20.7 mph N/A   Scattered Clouds
3:55 PM 74.8 °F 58.3 °F 56% 29.97 in 10.0 mi SSW 15.0 mph 23.0 mph N/A   Scattered Clouds
4:15 PM 74.3 °F 58.5 °F 58% 29.97 in 10.0 mi SSW 8.1 mph 16.1 mph N/A   Scattered Clouds
4:35 PM 73.4 °F 59.2 °F 61% 29.97 in 10.0 mi SSW 11.5 mph - N/A   Scattered Clouds
4:55 PM 72.5 °F 59.2 °F 63% 29.98 in 10.0 mi South 8.1 mph - N/A   Clear
5:15 PM 72.3 °F 59.0 °F 63% 29.99 in 10.0 mi SSW 11.5 mph - N/A   Clear
5:35 PM 71.8 °F 59.0 °F 64% 29.99 in 10.0 mi South 8.1 mph - N/A   Clear
6:55 PM 69.8 °F 59.9 °F 71% 30.00 in 10.0 mi South 8.1 mph - N/A   Clear
7:15 PM 70.0 °F 59.9 °F 70% 30.00 in 10.0 mi South 10.4 mph - N/A   Scattered Clouds
7:35 PM 70.0 °F 59.9 °F 70% 29.99 in 10.0 mi South 10.4 mph 17.3 mph N/A   Scattered Clouds
7:55 PM 70.7 °F 59.5 °F 68% 29.99 in 10.0 mi South 13.8 mph 19.6 mph N/A   Mostly Cloudy
8:15 PM 70.7 °F 59.5 °F 68% 30.00 in 10.0 mi South 13.8 mph - N/A   Overcast
8:35 PM 70.0 °F 59.5 °F 69% 29.99 in 10.0 mi South 11.5 mph - N/A   Mostly Cloudy
8:55 PM 69.4 °F 59.5 °F 71% 30.00 in 10.0 mi SSW 11.5 mph - N/A   Scattered Clouds
9:15 PM 69.4 °F 59.9 °F 72% 29.99 in 10.0 mi South 10.4 mph - N/A   Clear
9:35 PM 68.9 °F 59.9 °F 73% 29.99 in 10.0 mi South 11.5 mph - N/A   Clear
9:55 PM 68.4 °F 60.1 °F 75% 29.99 in 10.0 mi SSW 10.4 mph - N/A   Clear
10:15 PM 68.4 °F 60.3 °F 75% 29.99 in 10.0 mi South 9.2 mph - N/A   Clear
10:35 PM 68.2 °F 60.6 °F 77% 30.00 in 10.0 mi South 10.4 mph - N/A   Clear
10:55 PM 68.4 °F 60.8 °F 77% 30.00 in 10.0 mi South 10.4 mph - N/A   Clear
11:15 PM 68.4 °F 60.8 °F 77% 30.01 in 10.0 mi SSW 11.5 mph 17.3 mph N/A   Clear
11:35 PM 68.4 °F 61.2 °F 78% 30.01 in 10.0 mi SSW 13.8 mph - N/A   Clear
11:55 PM 68.2 °F 61.3 °F 79% 30.01 in 10.0 mi SSW 10.4 mph - N/A   Clear